[[{"header":{"parameterUnit":"m.s-1","parameterCategory":1,"la1":30.2991,"la2":30.254,"lo1":-89.0895,"lo2":-89.0444,"dx":0.0017,"dy":0.0017,"nx":28,"ny":28,"refTime":"2023-01-21T15:00:00:Z","depth":0,"parameterNumber":2,"parameterNumberName":"U-component_of_WINDS"},"data":[0,0,0,0,0,0,0,0,0,0,0,0,0,0,0,0,0,0,0,0,0,0,0,0,0,0,0,0,0,0,0,0,0,0,0,0,0,0,0,0,0,0,0,0,0,0,0,0,0,0,0,0,0,0,0,0,0,0,1.6957,1.6958,0,1.7075,1.7076,1.7077,1.7023,1.702,1.7017,1.7014,1.7143,1.7149,1.7155,0,0,0,0,0,0,0,0,0,0,0,0,0,1.6691,1.6697,1.6956,1.6958,1.6959,1.7074,1.7076,1.7078,1.7023,1.702,1.7016,1.7013,1.7141,1.7148,1.7155,0,0,0,0,0,0,0,0,0,0,0,0,0,1.6808,1.6698,1.6956,1.6946,1.6946,1.7074,1.7076,1.7078,1.7024,1.702,1.7015,1.7011,1.7138,1.7147,1.7156,1.7304,0,0,1.7185,1.7189,0,0,0,0,0,0,0,0,1.6801,1.6818,1.6946,1.6947,1.6947,1.7029,1.703,1.7154,1.7025,1.6995,1.7014,1.7009,1.7109,1.712,1.7153,1.731,1.7315,1.7186,1.7191,1.7195,1.7198,0,0,0,0,0,0,0,1.6793,1.6812,1.7003,1.6948,1.6949,1.6938,1.6949,1.7053,1.7076,1.6997,1.6993,1.7008,1.7109,1.7144,1.7155,1.7317,1.7185,1.7194,1.7199,1.7203,1.7602,1.7606,0,0,0,0,0,0,1.6785,1.6806,1.7,1.7007,1.6862,1.6946,1.6959,1.7008,1.7074,1.708,1.7011,1.7005,1.713,1.7145,1.716,1.7337,1.7195,1.7204,1.7209,1.7597,1.7603,1.7608,0,0,0,0,0,0,1.6779,1.6802,1.6995,1.6906,1.6929,1.6956,1.701,1.7012,1.7047,1.7085,1.709,1.7043,1.7127,1.7147,1.7268,1.734,1.7208,1.7217,1.7591,1.7599,1.7605,1.7692,0,0,0,0,0,0,1.6772,1.6801,1.6855,1.6907,1.6934,1.7099,1.7015,1.7018,1.7063,1.7055,1.7116,1.7122,1.7125,1.7254,1.7277,1.7351,1.7224,1.7584,1.7594,1.7603,1.7683,1.7701,1.7717,0,0,0,0,0,1.6762,1.6876,1.6858,1.6882,1.7002,1.7103,1.7119,1.7118,1.7069,1.7125,1.7149,1.712,1.7329,1.7267,1.7292,1.737,1.758,1.7591,1.7602,1.7675,1.7698,1.7717,0,0,0,0,0,0,1.6835,1.6883,1.6863,1.6997,1.7046,1.7094,1.7164,1.7143,1.7209,1.72,1.7198,1.7213,1.7338,1.7366,1.7297,1.7516,1.7447,1.7464,1.7494,1.7516,1.7533,1.7524,1.7232,0,0,0,0,0,1.6866,1.6941,1.698,1.7095,1.712,1.7138,1.7182,1.7177,1.7229,1.7251,1.7284,1.7338,1.7416,1.7467,1.7541,1.7686,1.77,1.7752,1.777,1.7784,1.7799,1.7879,1.7903,1.7645,1.7645,1.7645,0,0,1.6932,1.6967,1.7016,1.711,1.7148,1.7228,1.7156,1.7245,1.7305,1.7265,1.7381,1.7407,1.7468,1.7602,1.7663,1.7629,1.7873,1.7798,1.7809,1.7817,1.7893,1.7917,1.7939,1.7653,1.7651,1.765,0,0,1.7093,1.7127,1.7226,1.7264,1.7321,1.7333,1.7356,1.7408,1.7423,1.7539,1.751,1.7584,1.7717,1.7761,1.7801,1.7979,1.7955,1.8004,1.8095,1.8173,1.8193,1.8211,1.8276,1.8299,1.8018,1.8018,1.8019,0,1.7168,1.7286,1.728,1.737,1.7414,1.7378,1.748,1.7519,1.7598,1.763,1.759,1.7757,1.7795,1.794,1.7983,1.8016,1.8045,1.7997,1.819,1.8208,1.8225,1.8287,1.8311,1.8024,1.8023,1.8023,1.8022,0,1.7376,1.7459,1.7532,1.7607,1.7658,1.7754,1.7765,1.7818,1.7809,1.7826,1.7945,1.7989,1.8071,1.8105,1.8098,1.8249,1.8226,1.8189,1.8119,1.8255,1.8313,1.8337,1.8032,1.803,1.8028,1.8027,0,0,1.7587,1.7656,1.7683,1.7717,1.7777,1.7842,1.7937,1.8015,1.8061,1.8118,1.8199,1.8312,1.8278,1.8323,1.8321,1.8389,1.8529,1.8343,1.8345,1.8377,1.8699,1.8727,1.8755,1.8512,1.8517,1.852,1.8694,0,1.7752,1.7916,1.7913,1.8066,1.8143,1.8111,1.8194,1.8241,1.8259,1.8329,1.835,1.8431,1.8378,1.8406,1.8472,1.8497,1.8593,1.8485,1.859,1.8594,1.8576,1.8785,1.8815,1.8977,1.8717,1.8721,1.8723,0,1.7967,1.8028,1.8188,1.8237,1.8269,1.8344,1.8415,1.8481,1.8535,1.8544,1.8594,1.8581,1.868,1.8607,1.8745,1.8671,1.8714,1.8733,1.8739,1.875,1.8667,1.8802,1.9028,1.9053,1.8759,1.8756,1.8753,0,1.8106,1.8228,1.8339,1.8369,1.8429,1.8482,1.851,1.8559,1.8606,1.867,1.8701,1.8776,1.8817,1.8877,1.8885,1.8831,1.9024,1.8951,1.9036,1.9036,1.9079,1.9076,1.9316,1.9105,1.9105,1.9104,1.9104,0,1.8291,1.8391,1.8402,1.847,1.8581,1.8579,1.8689,1.8713,1.8757,1.8832,1.8809,1.888,1.8886,1.896,1.8968,1.9081,1.91,1.9111,1.9113,1.9114,1.9113,1.9143,1.9132,1.9111,1.9109,1.9108,1.9107,0,1.8465,1.8476,1.8595,1.8642,1.8656,1.8736,1.8777,1.8844,1.8859,1.8953,1.8976,1.9001,1.9086,1.91,1.9202,1.9207,1.9343,1.9332,1.9324,1.9323,1.9407,1.9399,1.9676,1.9712,1.9477,1.9479,1.9481,0,1.8582,1.8658,1.8712,1.8759,1.8789,1.8866,1.8913,1.8914,1.8965,1.9032,1.9091,1.9174,1.924,1.9379,1.9408,1.9486,1.9477,1.9569,1.9489,1.9488,1.948,1.9475,1.9483,1.9584,1.9587,1.9589,1.9591,0,1.8791,1.8793,1.886,1.8931,1.8988,1.9044,1.9097,1.9137,1.9146,1.9205,1.929,1.9342,1.9444,1.9527,1.9604,1.9636,1.9616,1.9615,1.9639,1.9642,1.9634,1.964,1.9367,1.9609,1.9607,1.9606,1.9605,1.9604,1.8941,1.9006,1.9054,1.9131,1.9171,1.9221,1.9286,1.9309,1.938,1.9461,1.9459,1.9554,1.9607,1.9708,1.9744,1.982,1.9791,1.9825,1.9834,1.9843,1.9851,1.9621,1.9834,1.9834,1.9833,1.9833,1.9833,0,1.9148,1.9178,1.9248,1.9322,1.9383,1.9356,1.9414,1.9467,1.955,1.9601,1.9666,1.9765,1.9846,1.9881,1.9961,2.0015,2.0008,2.0036,2.0032,2.004,1.9873,1.9844,2.004,2.004,2.004,2.004,2.004,2.004,1.9264,1.9373,1.9381,1.9511,1.954,1.9631,1.9667,1.9714,1.9753,1.9865,1.9931,1.9952,1.9997,2.008,2.0153,2.0162,2.0193,2.0225,2.023,2.0073,2.0052,2.0032,2.0005,2.0232,2.0232,2.0391,2.0393,2.0394]},{"header":{"parameterUnit":"m.s-1","parameterCategory":1,"la1":30.2991,"la2":30.254,"lo1":-89.0895,"lo2":-89.0444,"dx":0.0017,"dy":0.0017,"nx":28,"ny":28,"refTime":"2023-01-21T15:00:00:Z","depth":0,"parameterNumber":3,"parameterNumberName":"V-component_of_WINDS"},"data":[0,0,0,0,0,0,0,0,0,0,0,0,0,0,0,0,0,0,0,0,0,0,0,0,0,0,0,0,0,0,0,0,0,0,0,0,0,0,0,0,0,0,0,0,0,0,0,0,0,0,0,0,0,0,0,0,0,0,3.2518,3.2521,0,3.273,3.2733,3.2735,3.2737,3.2734,3.2731,3.2729,3.295,3.2958,3.2967,0,0,0,0,0,0,0,0,0,0,0,0,0,3.2121,3.2128,3.2518,3.2521,3.2523,3.273,3.2733,3.2736,3.2737,3.2734,3.2731,3.2727,3.2947,3.2957,3.2967,0,0,0,0,0,0,0,0,0,0,0,0,0,3.2309,3.213,3.2518,3.2549,3.2554,3.2729,3.2733,3.2736,3.2738,3.2734,3.273,3.2726,3.2944,3.2956,3.2969,3.3128,0,0,3.3007,3.3013,0,0,0,0,0,0,0,0,3.2298,3.2324,3.2542,3.2547,3.2553,3.2703,3.2674,3.2868,3.2739,3.2668,3.2729,3.2724,3.2871,3.289,3.2939,3.3139,3.3148,3.3009,3.3016,3.3022,3.3025,0,0,0,0,0,0,0,3.2285,3.2315,3.2602,3.2545,3.2552,3.2554,3.2577,3.2711,3.279,3.2674,3.2675,3.2699,3.2874,3.2926,3.2944,3.3152,3.3008,3.3019,3.3027,3.3032,3.3496,3.3501,0,0,0,0,0,0,3.2265,3.2304,3.2595,3.2609,3.2413,3.2565,3.259,3.2659,3.2789,3.2805,3.2703,3.2699,3.2907,3.2929,3.2952,3.3149,3.3022,3.3033,3.3041,3.3492,3.3497,3.3503,0,0,0,0,0,0,3.2257,3.2291,3.2587,3.2457,3.2494,3.2576,3.2654,3.2665,3.2718,3.281,3.2825,3.2742,3.2904,3.2934,3.3085,3.3157,3.3039,3.3051,3.3486,3.3494,3.35,3.3544,0,0,0,0,0,0,3.2245,3.2288,3.2348,3.2458,3.2501,3.2715,3.2658,3.2672,3.2739,3.2736,3.2851,3.2866,3.2904,3.3066,3.3097,3.3172,3.3061,3.348,3.3489,3.3498,3.3536,3.3551,3.3564,0,0,0,0,0,3.2231,3.2352,3.2351,3.2386,3.2578,3.2719,3.2744,3.2784,3.2745,3.2807,3.2867,3.2862,3.3143,3.3081,3.3117,3.3196,3.3476,3.3487,3.3497,3.353,3.3548,3.3564,0,0,0,0,0,0,3.225,3.2367,3.2367,3.2527,3.2613,3.2719,3.2798,3.2802,3.2901,3.2894,3.2941,3.2967,3.3118,3.3172,3.3101,3.3359,3.3305,3.3323,3.3318,3.3336,3.335,3.3335,3.3071,0,0,0,0,0,3.2273,3.2376,3.2473,3.2605,3.2648,3.2716,3.2779,3.2802,3.2894,3.293,3.3001,3.3091,3.32,3.3271,3.3376,3.3544,3.357,3.3616,3.363,3.3641,3.3657,3.3752,3.3774,3.3538,3.3538,3.3537,0,0,3.2321,3.2398,3.246,3.2611,3.268,3.2789,3.2747,3.2862,3.2944,3.2948,3.3095,3.3151,3.3255,3.3415,3.3489,3.3465,3.3728,3.3655,3.3663,3.3673,3.3765,3.3788,3.3808,3.3545,3.3544,3.3542,0,0,3.2465,3.2532,3.265,3.2721,3.2826,3.287,3.2898,3.3005,3.3041,3.3189,3.3196,3.3294,3.348,3.3555,3.3617,3.379,3.3791,3.3823,3.3898,3.399,3.4008,3.4025,3.4089,3.4112,3.3838,3.3839,3.3839,0,3.2512,3.2673,3.2711,3.2828,3.2895,3.2903,3.3025,3.3092,3.3226,3.3274,3.3244,3.3479,3.3549,3.3729,3.3771,3.382,3.3856,3.3811,3.4002,3.402,3.4036,3.4098,3.4121,3.3842,3.3842,3.3841,3.3841,0,3.2727,3.2839,3.2922,3.3051,3.3128,3.3246,3.3304,3.3378,3.3395,3.3443,3.3595,3.368,3.3803,3.3847,3.3865,3.403,3.4012,3.3992,3.3939,3.4061,3.412,3.4144,3.3847,3.3846,3.3845,3.3844,0,0,3.2888,3.3037,3.3067,3.3127,3.3244,3.3333,3.3453,3.3572,3.3635,3.3728,3.3832,3.399,3.3972,3.4043,3.407,3.415,3.4285,3.4121,3.4124,3.415,3.4475,3.4491,3.4518,3.4286,3.429,3.4294,3.4467,0,3.3045,3.3257,3.3295,3.3481,3.3586,3.3597,3.3702,3.3786,3.3835,3.3933,3.3988,3.41,3.4067,3.411,3.419,3.4252,3.4352,3.424,3.4385,3.439,3.436,3.4548,3.4565,3.4724,3.449,3.4494,3.4497,0,3.3257,3.3355,3.355,3.3655,3.3701,3.3794,3.3909,3.4001,3.4099,3.4129,3.4208,3.4226,3.4354,3.4294,3.4472,3.4395,3.4457,3.4496,3.4503,3.452,3.4452,3.4571,3.4775,3.48,3.4533,3.453,3.4528,0,3.3357,3.3538,3.3679,3.3729,3.3855,3.3921,3.3976,3.4069,3.414,3.424,3.4287,3.4401,3.4464,3.4553,3.4602,3.4553,3.4777,3.4721,3.4808,3.4807,3.4855,3.4852,3.5074,3.4892,3.4892,3.4891,3.4891,0,3.353,3.3649,3.3726,3.3813,3.3948,3.3993,3.4126,3.4181,3.4264,3.4364,3.438,3.4473,3.4531,3.4634,3.4673,3.4816,3.4844,3.4874,3.4883,3.4873,3.487,3.4916,3.4907,3.4898,3.4896,3.4895,3.4894,0,3.3665,3.372,3.3875,3.3981,3.4011,3.4107,3.4199,3.4285,3.4334,3.446,3.4492,3.4569,3.4691,3.4749,3.49,3.4926,3.5089,3.509,3.5056,3.506,3.5144,3.5136,3.5405,3.5444,3.5234,3.5236,3.5238,0,3.3772,3.3864,3.3981,3.4048,3.4105,3.4213,3.4285,3.4333,3.4407,3.4526,3.4599,3.4721,3.4821,3.5016,3.5087,3.5203,3.5208,3.5295,3.5226,3.5214,3.5213,3.5207,3.5218,3.5307,3.5309,3.5311,3.5312,0,3.3957,3.398,3.4082,3.4195,3.428,3.4371,3.4461,3.4516,3.4578,3.4662,3.4786,3.4864,3.5018,3.514,3.5262,3.5321,3.5329,3.5333,3.536,3.5352,3.5329,3.5345,3.5092,3.5327,3.5326,3.5325,3.5324,3.5323,3.4083,3.4166,3.4262,3.4376,3.4448,3.4532,3.4619,3.4679,3.4783,3.4911,3.4934,3.5067,3.5164,3.5328,3.5392,3.5498,3.5478,3.5516,3.5526,3.5536,3.5541,3.5311,3.552,3.552,3.5519,3.5519,3.5519,0,3.427,3.4332,3.4437,3.4562,3.4652,3.4649,3.4749,3.4826,3.4942,3.5031,3.513,3.5274,3.5393,3.5474,3.5595,3.5665,3.5672,3.5695,3.5692,3.5706,3.5551,3.5517,3.5688,3.5688,3.5688,3.5688,3.5688,3.5688,3.4379,3.4521,3.4556,3.4735,3.4797,3.4926,3.4984,3.5062,3.5134,3.5294,3.5393,3.5444,3.5531,3.5659,3.5769,3.579,3.5835,3.586,3.5881,3.5734,3.5717,3.57,3.5668,3.5869,3.5869,3.6027,3.6029,3.603]}]]